SYRACUSE 3B

Last updated on Sat Oct 05 2024 00:02:37 GMT+0000 (Coordinated Universal Time)

1 29273U 06033B 24276.38938437 -.00000041 00000+0 00000+0 0 9995 2 29273 1.2946 88.0160 0004428 122.5885 295.9800 1.00273071 66465
UTC large
Height (km)
Speed (km/s)
/
Latitude / Longitude
Inclination (degrees)
Orbital Period (minutes)
Azimuth
Elevation
Range (km)
Doppler Factor

Next 0 passes for location: London (51.5072 / 0.1276)

Sorry there are no passes over London.